Location: Ermatingen
(47.6706°N, 9.0857°E)
Time: 00:32:36
(UTC+00:00)

Cosmos 1428 Rocket - Pass Details

Date: 29 November 2021
Orbit: 949 x 987 km, 82.9° (Epoch: 17 January)

Event Time Altitude Azimuth Distance (km) Brightness Sun altitude
Rises 05:50:39 0° 165° (SSE) 3,640 8.1 -9.5°
Reaches altitude 10° 05:53:16 10° 159° (SSE) 2,692 7.5 -9.1°
Maximum altitude 05:59:01 43° 90° (E) 1,315 5.8 -8.2°
Drops below altitude 10° 06:04:46 10° 21° (NNE) 2,689 6.8 -7.4°
Sets 06:07:21 0° 15° (NNE) 3,636 7.4 -7.0°
